Regional Weather Roundup
Issued by NWS Charleston, WV

Home | Current Version | Previous Version | Graphics & Text | Print | Product List | Glossary On
Versions: 1 2 3 4 5 6 7 8 9 10 11 12 13 14 15 16 17 18 19 20 21 22 23 24 25 26 27 28 29 30 31 32 33 34 35 36 37 38 39 40 41 42 43 44 45 46 47 48 49 50
000
ASUS41 KRLX 172010
RWRRLX
West Virginia Regional Weather Roundup
National Weather Service Charleston WV
400 PM EDT WED SEP 17 2014

Note: "fair" indicates few or no clouds below 12,000 feet with no
significant weather and/or obstructions to visibility.

WVZ003-172100-
Northern Panhandle of West Virginia

CITY           SKY/WX    TMP DP  RH WIND       PRES   REMARKS
WHEELING       SUNNY     67  47  48 W5        29.99F
$$

WVZ009-172100-
Northwest West Virginia

CITY           SKY/WX    TMP DP  RH WIND       PRES   REMARKS
PARKERSBURG    MOSUNNY   72  49  44 VRB3      30.01F
$$

WVZ006-172100-
Western West Virginia

CITY           SKY/WX    TMP DP  RH WIND       PRES   REMARKS
HUNTINGTON     PTSUNNY   70  54  56 VRB3      29.97F
$$

WVZ015-172100-
West Central West Virginia

CITY           SKY/WX    TMP DP  RH WIND       PRES   REMARKS
CHARLESTON     PTSUNNY   69  57  65 NW3       29.99S
$$

WVZ031-172100-
North Central West Virginia

CITY           SKY/WX    TMP DP  RH WIND       PRES   REMARKS
CLARKSBURG     MOSUNNY   71  50  47 W6        29.98F
MORGANTOWN     MOSUNNY   72  45  37 W5        29.99F
$$

WVZ035-042-045-172100-
South Central West Virginia

CITY           SKY/WX    TMP DP  RH WIND       PRES   REMARKS
BECKLEY        MOSUNNY   68  52  56 S3        30.00F
BLUEFIELD      PTSUNNY   70  53  54 VRB3      30.02F
LEWISBURG      CLOUDY    67  52  60 CALM      30.03R
$$

WVZ047-172100-
Northern Mountains of West Virginia

CITY           SKY/WX    TMP DP  RH WIND       PRES   REMARKS
ELKINS         MOSUNNY   69  50  50 NW8       29.99S
$$

WVZ052-172100-
Eastern Panhandle of West Virginia

CITY           SKY/WX    TMP DP  RH WIND       PRES   REMARKS
MARTINSBURG    SUNNY     71  44  37 E3        29.98F
PETERSBURG     MOSUNNY   75  46  35 CALM      29.97S
$$


USA.gov is the U.S. government's official web portal to all federal, state and local government web resources and services.